Location: Passo di Treia
(43.2833°N, 13.3333°E)
Time: 08:07:19
(UTC+00:00)

SMAP - Pass Details

Date: 09 December 2019
Orbit: 681 x 684 km, 98.1° (Epoch: 21 January)

Event Time Altitude Azimuth Distance (km) Brightness Sun altitude
Rises 16:33:58 0° 168° (SSE) 3,032 6.5 -11.1°
Reaches altitude 10° 16:36:11 10° 169° (S) 2,122 5.7 -11.5°
Maximum altitude 16:40:50 80° 257° (WSW) 699 3.2 -12.3°
Drops below altitude 10° 16:45:32 10° 345° (NNW) 2,138 5.6 -13.1°
Sets 16:47:47 0° 346° (NNW) 3,058 6.4 -13.5°
